Regional Weather Roundup
Issued by NWS Albany, NY

Home | Current Version | Previous Version | Text Only | Print | Product List | Glossary On
Versions: 1 2 3 4 5 6 7 8 9 10 11 12 13 14 15 16 17 18 19 20 21 22 23 24 25 26 27 28 29 30 31 32 33 34 35 36 37 38 39 40 41 42 43 44 45 46 47 48 49 50
000
ASUS41 KALY 201910
RWRALY

NEW YORK STATE HOURLY WEATHER ROUNDUP
NATIONAL WEATHER SERVICE ALBANY NY
300 PM EDT MON OCT 20 2014

NOTE: "FAIR" INDICATES FEW OR NO CLOUDS BELOW 12,000 FEET WITH NO
SIGNIFICANT WEATHER AND/OR NO OBSTRUCTIONS TO VISIBILITY.

NYZ032-033-038>043-046>054-057>066-NYZ062>081-202000-
EAST


CITY           SKY/WX    TMP DP  RH WIND       PRES   REMARKS
ALBANY         PTSUNNY   55  34  45 S13       29.95F
GLENS FALLS    CLOUDY    53  35  50 SW10      29.94F
POUGHKEEPSIE   CLOUDY    58  34  40 VRB7      29.97F
NEWBURGH       PTSUNNY   57  36  44 SW12      29.98F
MONTGOMERY     PTSUNNY   60  34  37 SW21G26   29.94F
WHITE PLAINS   MOSUNNY   57  34  41 S12       30.00F
ISLIP          PTSUNNY   58  38  47 SW16      30.02F
NEW YORK CITY  PTSUNNY   59  34  39 SW5       30.02F
CENTRAL PARK   MOSUNNY   59  36  42 VRB5      30.03F
$$

NYZ005>009-017-018-044>046-055-056-202000-
CENTRAL


CITY           SKY/WX    TMP DP  RH WIND       PRES   REMARKS
FULTON         CLOUDY    52  38  58 S10       29.87F
SYRACUSE       CLOUDY    56  38  50 MISG      29.88F
ROME           CLOUDY    52  36  54 S7        29.92S
ELMIRA         CLOUDY    55  39  54 SW10      29.88F
BINGHAMTON     CLOUDY    51  36  56 S10       29.90F
MONTICELLO     PTSUNNY   54  36  50 S9        29.96F
$$

NYZ026>034-041>043-202000-
NORTH


CITY           SKY/WX    TMP DP  RH WIND       PRES   REMARKS
WATERTOWN      CLOUDY    52  41  66 CALM      29.87F
FORT DRUM      NOT AVBL
MASSENA        LGT RAIN  45  40  82 S3        29.92F
SARANAC LAKE   CLOUDY    44  35  70 SW6       29.87F
PLATTSBURGH    LGT RAIN  47  37  68 S12       29.91F
$$

NYZ001>004-010>016-019>021-202000-
WEST


CITY           SKY/WX    TMP DP  RH WIND       PRES   REMARKS
NIAGARA FALLS  PTSUNNY   54  44  69 SW13      29.81F
BUFFALO        PTSUNNY   54  41  61 SW14G21   29.83F
DUNKIRK        CLOUDY    56  42  59 SW12G23   29.83F
JAMESTOWN      CLOUDY    52  39  62 S12       29.86S
WELLSVILLE     CLOUDY    52  37  56 SW10G18   29.87F
ROCHESTER      CLOUDY    53  39  59 S7        29.85F
PENN YAN       CLOUDY    52  39  61 S7        29.87F
$$

             KEY
       WCI = WIND CHILL INDEX
       VSB = VISIBILITY
       HX  = HEAT INDEX
$$



USA.gov is the U.S. government's official web portal to all federal, state and local government web resources and services.